(110035) = 2000 LQ11 = 2001 SX78

Discovered at Socorro on 2001-09-19 by LINEAR.

Orbit

Orbit type: Main Belt

Note: WebGL enabled browser required.

epoch2024-03-31.0
epoch JD2460400.5
perihelion date2022-08-12.39222
perihelion JD2459803.89223
argument of perihelion (°)31.11110
ascending node (°)215.16068
inclination (°)12.94991
eccentricity0.1823233
perihelion distance (AU)2.2191950
Tisserand w.r.t. Jupiter3.3
ΔV w.r.t. Earth (km/sec)10.2
semimajor axis (AU)2.7140249
mean anomaly (°)131.51408
mean daily motion (°/day)0.22043640
aphelion distance (AU)3.209
period (years)4.47
P-vector [x]-0.40996659
P-vector [y]-0.87612442
P-vector [z]-0.25364027
Q-vector [x]0.90292463
Q-vector [y]-0.42918038
Q-vector [z]0.02305027
absolute magnitude15.09
phase slope0.15
uncertainty0
referenceE2024-GH2
observations used1078
oppositions17
arc length (days)8625
first opposition used2000
last opposition used2024
residual rms (arc-secs)0.64
perturbers coarse indicatorM-v
perturbers precise indicator003Ek
first observation date used2000-06-04.0
last observation date used2024-01-15.0
computer nameMPCLINUX
JD of orbit computation2456966.715330
perihelion JD uncertainty (days)7.2822E-05
argument of perihelion uncertainty (°)2.4677E-05
ascending node uncertainty (°)1.7561E-05
inclination uncertainty (°)6.2248E-06
eccentricity uncertainty 3.8557E-08
perihelion distance uncertainty (AU)1.0738E-07
Minimum Orbit Intersection Distances (in AU)
for orbit epoch: 2460400.5, reference: E2024-GH2
Mercury1.76165
Venus1.49912
Earth1.21713
Mars0.67826
Jupiter1.81944
Saturn5.88594
Uranus15.7868
Neptune26.6563

Observations

1107 total observations over interval: 2000 06 04.27306 – 2024 01 15.088018
These data are available for download (format description).

Date (UT) J2000 RA J2000 Dec Magn Location Ref
2000 06 04.27306 18 03 34.09 -06 17 43.9 18.1   704 – Lincoln Laboratory ETS, New Mexico MPS 16027
2000 06 04.28703 18 03 33.47 -06 17 38.0 18.5   704 – Lincoln Laboratory ETS, New Mexico MPS 16027
2000 06 04.30068 18 03 32.80 -06 17 32.3 19.0   704 – Lincoln Laboratory ETS, New Mexico MPS 16027
2000 06 04.31508 18 03 32.29 -06 17 24.7 19.5   704 – Lincoln Laboratory ETS, New Mexico MPS 16027
2000 06 04.32821 18 03 31.54 -06 17 19.7 18.7   704 – Lincoln Laboratory ETS, New Mexico MPS 16027
2000 06 08.30580 18 00 30.14 -05 48 55.5 17.7   704 – Lincoln Laboratory ETS, New Mexico MPS 16027
2000 06 08.31920 18 00 29.48 -05 48 50.6 17.6   704 – Lincoln Laboratory ETS, New Mexico MPS 16027
2000 06 08.33242 18 00 28.88 -05 48 45.6 17.0   704 – Lincoln Laboratory ETS, New Mexico MPS 16027
2000 06 08.34557 18 00 28.20 -05 48 39.3 17.3   704 – Lincoln Laboratory ETS, New Mexico MPS 16027
2001 09 10.33398 01 50 28.87 +17 05 56.9 19.0   704 – Lincoln Laboratory ETS, New Mexico MPS 43884
2001 09 10.34759 01 50 28.55 +17 05 52.8 20.0   704 – Lincoln Laboratory ETS, New Mexico MPS 43884
2001 09 10.36124 01 50 28.19 +17 05 50.3 19.9   704 – Lincoln Laboratory ETS, New Mexico MPS 43884
2001 09 19.39022 01 46 19.50 +16 23 52.9 19.1   704 – Lincoln Laboratory ETS, New Mexico MPS 36597
2001 09 19.39854 01 46 19.16 +16 23 50.0 19.2   704 – Lincoln Laboratory ETS, New Mexico MPS 36597
2001 09 19.40447 01 46 19.03 +16 23 48.6 19.4   704 – Lincoln Laboratory ETS, New Mexico MPS 36597
2001 09 19.41505 01 46 18.52 +16 23 45.2 19.6   704 – Lincoln Laboratory ETS, New Mexico MPS 36597
2001 09 19.41873 01 46 18.53 +16 23 43.7 19.6   704 – Lincoln Laboratory ETS, New Mexico MPS 36597
2001 09 19.42769 01 46 18.11 +16 23 40.5 20.0   704 – Lincoln Laboratory ETS, New Mexico MPS 36597
2001 09 19.42965 01 46 18.10 +16 23 39.3 19.8   704 – Lincoln Laboratory ETS, New Mexico MPS 36597
2001 09 19.43302 01 46 18.06 +16 23 39.2 19.6   704 – Lincoln Laboratory ETS, New Mexico MPS 36597
2001 09 19.44314 01 46 17.70 +16 23 36.1 19.7   704 – Lincoln Laboratory ETS, New Mexico MPS 36597
2001 09 19.44515 01 46 17.62 +16 23 34.8 19.9   704 – Lincoln Laboratory ETS, New Mexico MPS 36597
2001 09 19.44730 01 46 17.55 +16 23 34.6 20.0   704 – Lincoln Laboratory ETS, New Mexico MPS 36597
2001 09 19.45803 01 46 17.17 +16 23 29.7 20.2   704 – Lincoln Laboratory ETS, New Mexico MPS 36597
2001 09 19.45996 01 46 17.04 +16 23 29.0 19.5   704 – Lincoln Laboratory ETS, New Mexico MPS 36597
2001 09 22.35808 01 44 36.99 +16 07 09.4 19.7   704 – Lincoln Laboratory ETS, New Mexico MPS 36597
2001 09 22.37452 01 44 36.29 +16 07 04.3 19.9   704 – Lincoln Laboratory ETS, New Mexico MPS 36597
2001 09 22.38893 01 44 35.77 +16 06 59.0 19.7   704 – Lincoln Laboratory ETS, New Mexico MPS 36597
2001 09 23.40166 01 43 58.58 +16 00 57.5 18.8   704 – Lincoln Laboratory ETS, New Mexico MPS 43884
2001 09 23.41594 01 43 58.03 +16 00 51.7 18.8   704 – Lincoln Laboratory ETS, New Mexico MPS 43884
2001 09 23.43023 01 43 57.50 +16 00 46.9 19.2   704 – Lincoln Laboratory ETS, New Mexico MPS 43884
2001 09 23.44453 01 43 56.92 +16 00 42.0 18.9   704 – Lincoln Laboratory ETS, New Mexico MPS 43884
2001 09 25.34816 01 42 44.44 +15 48 57.5 19.8   704 – Lincoln Laboratory ETS, New Mexico MPS 49466
2001 09 25.35062 01 42 44.41 +15 48 56.0 20.0   704 – Lincoln Laboratory ETS, New Mexico MPS 49466
2001 09 25.36314 01 42 43.93 +15 48 51.8 20.0   704 – Lincoln Laboratory ETS, New Mexico MPS 49466
2001 09 25.37811 01 42 43.28 +15 48 46.3 19.7   704 – Lincoln Laboratory ETS, New Mexico MPS 49466
2001 09 25.38035 01 42 43.24 +15 48 45.2 19.9   704 – Lincoln Laboratory ETS, New Mexico MPS 49466
2001 09 25.39309 01 42 42.67 +15 48 40.6 19.5   704 – Lincoln Laboratory ETS, New Mexico MPS 49466
2001 09 25.39590 01 42 42.54 +15 48 39.2 19.7   704 – Lincoln Laboratory ETS, New Mexico MPS 49466
2001 10 07.35674 01 34 02.15 +14 23 43.3 20.0   644 – Palomar Mountain/NEAT MPS 43884
2001 10 07.37810 01 34 01.07 +14 23 33.5 19.8   644 – Palomar Mountain/NEAT MPS 43884
2001 10 07.39929 01 34 00.06 +14 23 23.4 19.6   644 – Palomar Mountain/NEAT MPS 43884
2001 10 14.24909 01 28 32.16 +13 28 11.0 19.3   704 – Lincoln Laboratory ETS, New Mexico MPS 39373
2001 10 14.26479 01 28 31.35 +13 28 02.7 19.8   704 – Lincoln Laboratory ETS, New Mexico MPS 39373
2001 10 14.28060 01 28 30.55 +13 27 54.9 19.7   704 – Lincoln Laboratory ETS, New Mexico MPS 39373
2001 10 14.29666 01 28 29.77 +13 27 47.2 19.6   704 – Lincoln Laboratory ETS, New Mexico MPS 39373
2001 10 14.31232 01 28 28.97 +13 27 39.1 19.8   704 – Lincoln Laboratory ETS, New Mexico MPS 39373
2001 10 17.24736 01 26 07.14 +13 03 06.9 19.2   704 – Lincoln Laboratory ETS, New Mexico MPS 39373
2001 10 17.26338 01 26 06.37 +13 02 58.7 19.6   704 – Lincoln Laboratory ETS, New Mexico MPS 39373
2001 10 17.27935 01 26 05.59 +13 02 51.3 19.7   704 – Lincoln Laboratory ETS, New Mexico MPS 39373
2001 10 17.29533 01 26 04.81 +13 02 43.8 19.9   704 – Lincoln Laboratory ETS, New Mexico MPS 39373
2001 10 17.31167 01 26 03.98 +13 02 35.1 19.6   704 – Lincoln Laboratory ETS, New Mexico MPS 39373
2001 10 21.25073 01 22 55.77 +12 29 15.9 18.9   704 – Lincoln Laboratory ETS, New Mexico MPS 40531
2001 10 21.27582 01 22 54.55 +12 29 02.7 19.3   704 – Lincoln Laboratory ETS, New Mexico MPS 40531
2001 10 21.29346 01 22 53.64 +12 28 54.0 19.2   704 – Lincoln Laboratory ETS, New Mexico MPS 40531
2001 10 21.30989 01 22 52.87 +12 28 45.6 19.4   704 – Lincoln Laboratory ETS, New Mexico MPS 40531
2001 10 21.32651 01 22 52.03 +12 28 36.8 19.5   704 – Lincoln Laboratory ETS, New Mexico MPS 40531
2001 10 25.23820 01 19 50.89 +11 55 31.4 19.7   704 – Lincoln Laboratory ETS, New Mexico MPS 43884
2001 10 25.25487 01 19 50.06 +11 55 23.3 19.7   704 – Lincoln Laboratory ETS, New Mexico MPS 43884
2001 10 25.27171 01 19 49.19 +11 55 15.9 20.1   704 – Lincoln Laboratory ETS, New Mexico MPS 43884
2001 10 25.28842 01 19 48.41 +11 55 06.0 19.8   704 – Lincoln Laboratory ETS, New Mexico MPS 43884
2004 03 04.54928 12 42 35.00 -16 24 11.6 18.2 R E12 – Siding Spring Survey MPS 100859
2004 03 04.55947 12 42 34.67 -16 24 08.6 18.7 R E12 – Siding Spring Survey MPS 100859
2004 03 04.56983 12 42 34.37 -16 24 06.3 18.0 R E12 – Siding Spring Survey MPS 100859
2004 03 04.58002 12 42 34.13 -16 24 02.8 18.0 R E12 – Siding Spring Survey MPS 100859
2004 03 14.37508 12 37 28.71 -15 27 22.6 17.8   644 – Palomar Mountain/NEAT MPS 102124
2004 03 14.39840 12 37 27.81 -15 27 12.5 17.9   644 – Palomar Mountain/NEAT MPS 102124
2004 03 14.42506 12 37 26.76 -15 27 01.2 17.8   644 – Palomar Mountain/NEAT MPS 102124
2004 03 17.36905 12 35 34.61 -15 04 52.8 17.8   704 – Lincoln Laboratory ETS, New Mexico MPS 102124
2004 03 17.38007 12 35 34.17 -15 04 47.4 18.1   704 – Lincoln Laboratory ETS, New Mexico MPS 102124
2004 03 17.39114 12 35 33.70 -15 04 42.6 18.4   704 – Lincoln Laboratory ETS, New Mexico MPS 102124
2004 03 17.40209 12 35 33.22 -15 04 36.3 18.5   704 – Lincoln Laboratory ETS, New Mexico MPS 102124
2004 03 17.41301 12 35 32.79 -15 04 32.2 18.3   704 – Lincoln Laboratory ETS, New Mexico MPS 102124
2004 03 31.27818 12 25 36.02 -12 53 35.8 18.2   704 – Lincoln Laboratory ETS, New Mexico MPS 103048
2004 03 31.28875 12 25 35.54 -12 53 28.8 18.3   704 – Lincoln Laboratory ETS, New Mexico MPS 103048
2004 03 31.29902 12 25 35.02 -12 53 22.5 18.5   704 – Lincoln Laboratory ETS, New Mexico MPS 103048
2004 03 31.30936 12 25 34.59 -12 53 15.6 18.6   704 – Lincoln Laboratory ETS, New Mexico MPS 103048
2004 03 31.31969 12 25 34.06 -12 53 09.3 18.6   704 – Lincoln Laboratory ETS, New Mexico MPS 103048
2004 04 13.22693 12 16 33.54 -10 27 13.6 18.0   644 – Palomar Mountain/NEAT MPS 104238
2004 04 13.23750 12 16 33.12 -10 27 06.2 17.8   644 – Palomar Mountain/NEAT MPS 104238
2004 04 13.24771 12 16 32.72 -10 26 59.2 17.9   644 – Palomar Mountain/NEAT MPS 104238
2004 04 16.16681 12 14 47.42 -09 53 14.6 17.6   644 – Palomar Mountain/NEAT MPS 136918
2004 04 16.18745 12 14 46.66 -09 53 00.4 17.6   644 – Palomar Mountain/NEAT MPS 136918
2004 04 16.21499 12 14 45.65 -09 52 41.5 17.9   644 – Palomar Mountain/NEAT MPS 136918
